Location: Seattle
(47.6064°N, 122.3308°W)
Time: 22:08:45
(UTC-08:00)

Vanguard 2 - All Passes

Search period start: 26 November 2020 00:00
Search period end: 06 December 2020 00:00
Orbit: 554 x 2937 km, 32.9° (Epoch: 26 November)

Date Brightness Start Highest point End Pass type
(mag) Time Alt. Az. Time Alt. Az. Time Alt. Az.
27 Nov - 12:07:12 10° SSW 12:08:16 11° S 12:09:20 10° SSE daylight
28 Nov - 12:24:45 10° SSW 12:25:48 11° S 12:26:52 10° S daylight
29 Nov - 10:34:11 10° SSW 10:36:01 12° S 10:37:42 10° SSE daylight
30 Nov - 08:45:46 10° S 08:45:58 10° SSE 08:46:08 10° SSE daylight
30 Nov - 10:51:14 10° SSW 10:53:36 13° S 10:55:42 10° SSE daylight
01 Dec - 09:00:38 10° SSW 09:03:35 13° S 09:06:06 10° SE daylight
01 Dec - 11:08:40 10° SW 11:11:09 14° S 11:13:21 10° SSE daylight
02 Dec - 09:17:19 10° SSW 09:21:13 16° S 09:24:21 10° SE daylight
02 Dec - 11:26:23 10° SW 11:28:40 13° SSW 11:30:43 10° SSE daylight
03 Dec - 07:26:55 10° SSW 07:30:49 14° SSE 07:34:03 10° SE daylight
03 Dec - 09:34:27 10° SW 09:38:49 18° S 09:42:15 10° SE daylight
03 Dec - 11:44:29 10° SW 11:46:09 12° SSW 11:47:40 10° S daylight
04 Dec - 07:43:03 10° SSW 07:48:29 17° S 07:52:39 10° SE daylight
04 Dec - 09:51:50 10° SW 09:56:24 19° S 09:59:55 10° SE daylight
05 Dec - 05:53:36 10° S 05:57:35 12° SSE 06:01:01 10° SE visible
05 Dec - 07:59:49 10° SW 08:06:08 21° S 08:10:46 10° SE daylight
05 Dec - 10:09:26 10° SW 10:13:55 19° SSW 10:17:25 10° SSE daylight
